Location: Bittelbronn
(48.4454°N, 8.5870°E)
Time: 16:27:14
(UTC+00:00)

Cosmos 2074 Rocket - Pass Details

Date: 23 May 2024
Orbit: 966 x 986 km, 82.9° (Epoch: 16 June)

Event Time Altitude Azimuth Distance (km) Brightness Sun altitude
Exits shadow 02:48:45 - 199° (SSW) 3,276 6.2 -7.0°
Reaches altitude 10° 02:50:15 10° 201° (SSW) 2,714 5.8 -6.8°
Maximum altitude 02:56:25 63° 282° (WNW) 1,078 4.1 -6.0°
Drops below altitude 10° 03:02:36 10° 4° (N) 2,721 7.0 -5.3°
Sets 03:05:09 0° 8° (N) 3,671 7.8 -4.9°
